EUTELSAT KONNECT VHTS

Last updated on Thu Sep 10 2026 00:03:01 GMT+0000 (Coordinated Universal Time)

1 53765U 22110A 26251.73076606 -.00000004 00000+0 00000+0 0 9996 2 53765 0.0549 104.0886 0002788 39.2348 110.2425 1.00269762 7675
UTC large
Height (km)
Speed (km/s)
/
Latitude / Longitude
Inclination (degrees)
Orbital Period (minutes)
Azimuth
Elevation
Range (km)
Doppler Factor

Next 0 passes for location: London (51.5072 / 0.1276)

No passes found over London.
EUTELSAT KONNECT VHTS